Simultaneous Nadir Overpasses (SNOs) Predictions

Prediction of SNOs between GOES-18 and NOAA-21 Satellite Orbit:

Table of predicted SNOs for the next 14.0 days since TLE Epoch: 5/31/2024
Index Date Time (GOES-18) GOES-18 Lat,Lon NOAA-21 Lat,Lon Distance(km) Time Diff (sec)
1 06/01/2024 22:33:20 0.00,-137.00 -0.13,-137.53 60.97 80
2 06/02/2024 22:17:17 0.00,-137.00 0.91,-133.01 454.65 80
3 06/04/2024 10:39:08 -0.01,-137.00 0.27,-138.29 146.79 80
4 06/05/2024 10:17:44 -0.01,-136.99 -0.72,-133.76 368.23 80
5 06/06/2024 22:39:44 0.02,-136.97 -0.44,-139.07 239.27 80
6 06/07/2024 22:23:40 0.02,-136.96 0.55,-134.54 275.47 80
7 06/09/2024 10:42:50 -0.02,-136.95 0.62,-139.82 326.91 80
8 06/10/2024 10:26:47 -0.02,-136.94 -0.38,-135.29 187.75 80
9 06/11/2024 22:46:06 0.02,-136.91 -0.78,-140.60 420.23 80
10 06/12/2024 22:30:03 0.02,-136.90 0.22,-136.07 94.42 80
